Weather History for Anoka County, MN

Change the Weather History Date:

Saturday, March 9, 2013

  Actual Average Record
Temperature  
Mean Temperature 36 °F -  
Max Temperature 37 °F 30 °F 46 °F (2006)
Min Temperature 35 °F 14 °F -9 °F (2003)
Degree Days  
Heating Degree Days 29    
Moisture  
Dew Point 35 °F    
Average Humidity 95    
Maximum Humidity 100    
Minimum Humidity 75    
Precipitation  
Precipitation 0.28 in - - ()
Sea Level Pressure  
Sea Level Pressure 29.88 in    
Wind  
Wind Speed 8 mph (SE)    
Max Wind Speed 17 mph    
Max Gust Speed 18 mph    
Visibility 3 miles    
Events Fog , Rain    
Averages and records for this station are not official NWS values.
T = Trace of Precipitation, MM = Missing Value Source: NWS Daily Summary

Daily Weather History Graph

Daily Weather History Graph

Search for Another Location

Airport:

Trip Planner

Search our weather history database for the weather conditions in past years. The results will help you decide how hot, cold, wet, or windy it might be!

Date:

Astronomy

Mar. 09, 2013 Rise Set
Actual Time 6:35 AM CST 6:11 PM CST
Civil Twilight 6:06 AM CST 6:40 PM CST
Nautical Twilight 5:32 AM CST 7:14 PM CST
Astronomical Twilight 4:58 AM CST 7:49 PM CST
Moon 5:05 AM CST (3/9) 4:10 PM CST (3/9)
Length of Visible Light 12h 34m
Length of Day
11h 35m
Waning Crescent, 5% of the Moon is Illuminated
Mar 9
Waning Crescent
Mar 11
New
Mar 19
First Quarter
Mar 27
Full
Apr 2
Last Quarter

Hourly Weather History & Observations

Time (CST) Temp. Windchill Dew Point Humidity Pressure Visibility Wind Dir Wind Speed Gust Speed Precip Events Conditions
12:14 AM 37.4 °F 29.8 °F 30.2 °F 75% 30.07 in 10.0 mi SSE 11.5 mph 16.1 mph N/A   Overcast
12:34 AM 37.4 °F 30.8 °F 30.2 °F 75% 30.07 in 10.0 mi SE 9.2 mph 16.1 mph N/A   Overcast
12:54 AM 37.4 °F 30.8 °F 30.2 °F 75% 30.07 in 10.0 mi SSE 9.2 mph - N/A   Overcast
1:14 AM 37.4 °F 31.4 °F 30.2 °F 75% 30.06 in 10.0 mi SE 8.1 mph - N/A   Overcast
1:33 AM 35.6 °F 29.2 °F 30.2 °F 81% 30.06 in 10.0 mi SE 8.1 mph - N/A   Overcast
1:54 AM 35.6 °F 29.2 °F 30.2 °F 81% 30.05 in 7.0 mi SE 8.1 mph - N/A   Overcast
2:14 AM 35.6 °F 29.2 °F 30.2 °F 81% 30.04 in 4.0 mi SE 8.1 mph - N/A Rain Light Rain
2:34 AM 35.6 °F 29.2 °F 32.0 °F 87% 30.03 in 4.0 mi SE 8.1 mph - 0.02 in   Overcast
2:54 AM 35.6 °F 28.6 °F 33.8 °F 93% 30.01 in 3.0 mi SE 9.2 mph - 0.06 in   Overcast
3:14 AM 35.6 °F 29.2 °F 33.8 °F 93% 30.00 in 3.0 mi ESE 8.1 mph - 0.02 in   Overcast
3:34 AM 35.6 °F 28.6 °F 33.8 °F 93% 29.98 in 3.0 mi ESE 9.2 mph - 0.04 in   Overcast
3:54 AM 35.6 °F 28.6 °F 33.8 °F 93% 29.97 in 2.5 mi ESE 9.2 mph - 0.07 in   Overcast
4:14 AM 35.6 °F 28.0 °F 33.8 °F 93% 29.96 in 2.5 mi ESE 10.4 mph - 0.04 in   Overcast
4:34 AM 35.6 °F 28.6 °F 33.8 °F 93% 29.95 in 3.0 mi ESE 9.2 mph - 0.07 in   Overcast
4:54 AM 35.6 °F 28.0 °F 35.6 °F 100% 29.94 in 3.0 mi ESE 10.4 mph - 0.08 in   Overcast
5:14 AM 35.6 °F 28.0 °F 35.6 °F 100% 29.93 in 3.0 mi SE 10.4 mph - 0.02 in   Drizzle
5:34 AM 35.6 °F 28.6 °F 35.6 °F 100% 29.92 in 4.0 mi SE 9.2 mph - 0.02 in   Light Drizzle
5:54 AM 35.6 °F 27.5 °F 35.6 °F 100% 29.92 in 4.0 mi SE 11.5 mph 16.1 mph 0.02 in   Light Drizzle
6:13 AM 35.6 °F 27.5 °F 35.6 °F 100% 29.93 in 3.0 mi SSE 11.5 mph - 0.01 in   Drizzle
6:34 AM 35.6 °F 27.1 °F 35.6 °F 100% 29.91 in 3.0 mi SE 12.7 mph 18.4 mph 0.01 in Rain Light Rain
6:45 AM 35.6 °F 25.5 °F 35.6 °F 100% 29.91 in 3.0 mi SE 17.3 mph - N/A Rain Rain
6:54 AM 35.6 °F 28.0 °F 35.6 °F 100% 29.90 in 4.0 mi SE 10.4 mph - 0.02 in Rain Light Rain
7:50 AM 35.6 °F 27.5 °F 35.6 °F 100% 29.88 in 3.0 mi SE 11.5 mph - N/A   Overcast
8:45 AM 35.6 °F 27.5 °F 35.6 °F 100% 29.85 in 1.2 mi SE 11.5 mph 18.4 mph N/A   Overcast
9:50 AM 37.4 °F 30.8 °F 35.6 °F 93% 29.84 in 1.2 mi SE 9.2 mph - N/A   Overcast
10:50 AM 37.4 °F 30.8 °F 35.6 °F 93% 29.83 in 1.0 mi SE 9.2 mph - N/A   Overcast
11:50 AM 37.4 °F 32.8 °F 37.4 °F 100% 29.79 in 1.0 mi SE 5.8 mph - N/A   Overcast
12:50 PM 37.4 °F 31.4 °F 37.4 °F 100% 29.76 in 1.0 mi SE 8.1 mph - N/A Rain Light Rain
1:45 PM 37.4 °F 31.4 °F 37.4 °F 100% 29.75 in 4.0 mi SE 8.1 mph - N/A   Light Drizzle
2:50 PM 37.4 °F 31.4 °F 37.4 °F 100% 29.71 in 5.0 mi ESE 8.1 mph - N/A   Overcast
3:45 PM 37.4 °F 33.8 °F 37.4 °F 100% 29.71 in 4.0 mi SE 4.6 mph - N/A   Drizzle
4:45 PM 37.4 °F 32.8 °F 37.4 °F 100% 29.69 in 2.0 mi East 5.8 mph - N/A   Light Drizzle
5:45 PM 37.4 °F 34.9 °F 37.4 °F 100% 29.70 in 5.0 mi SE 3.5 mph - N/A   Light Drizzle
6:45 PM 37.4 °F - 37.4 °F 100% 29.71 in 4.0 mi Calm Calm - N/A   Light Drizzle
8:45 PM 35.6 °F - 35.6 °F 100% 29.74 in 0.2 mi Calm Calm - N/A Fog Fog
9:14 PM 35.6 °F - 35.6 °F 100% 29.74 in 0.2 mi Calm Calm - N/A Fog Fog
9:34 PM 35.6 °F - 35.6 °F 100% 29.75 in 0.2 mi Calm Calm - 0.01 in Fog Fog
9:54 PM 35.6 °F - 35.6 °F 100% 29.75 in 0.2 mi Calm Calm - 0.01 in Fog Fog
10:14 PM 35.6 °F - 35.6 °F 100% 29.76 in 0.2 mi Calm Calm - N/A Fog Fog
10:34 PM 35.6 °F - 35.6 °F 100% 29.77 in 0.2 mi Calm Calm - N/A Fog Fog
10:54 PM 35.6 °F - 35.6 °F 100% 29.77 in 0.2 mi Calm Calm - N/A Fog Fog
11:14 PM 37.4 °F - 37.4 °F 100% 29.78 in 0.5 mi Calm Calm - N/A Fog Fog
11:33 PM 35.6 °F 29.9 °F 35.6 °F 100% 29.78 in 0.5 mi WNW 6.9 mph - 0.01 in Rain Rain
11:54 PM 35.6 °F 29.2 °F 35.6 °F 100% 29.78 in 1.0 mi NW 8.1 mph - 0.02 in Rain Light Rain